Location: College Park
(38.9810°N, 76.9370°W)
Time: 07:59:51
(UTC-05:00)

ISS - Pass Details

Date: 12 November 2017
Orbit: 402 x 407 km, 51.6° (Epoch: 24 November)

Event Time Altitude Azimuth Distance (km) Brightness Sun altitude
Exits shadow 06:03:10 - 326° (NW) 1,682 -1.2 -9.0°
Reaches altitude 10° 06:03:50 10° 332° (NNW) 1,456 -1.4 -8.9°
Maximum altitude 06:06:28 22° 26° (NNE) 932 -1.9 -8.4°
Drops below altitude 10° 06:09:06 10° 80° (E) 1,452 0.1 -7.9°
Sets 06:11:28 0° 96° (E) 2,309 2.1 -7.4°
